Location: Hohe Wand Kleine Kanzel
(47.8330°N, 16.0170°E)
Time: 06:32:18
(UTC+02:00)

Altair - Visible Passes

Search period start: 26 July 2021 00:00
Search period end: 05 August 2021 00:00
Orbit: 1501 x 1682 km, 47.2° (Epoch: 25 July)

Date Brightness Start Highest point End Pass type
(mag) Time Alt. Az. Time Alt. Az. Time Alt. Az.
26 Jul 8.7 02:28:49 17° SSE 02:32:38 22° SE 02:39:04 10° E visible
26 Jul 7.8 04:26:50 10° SW 04:35:49 57° SSE 04:44:42 10° ENE visible
27 Jul 8.7 02:04:52 17° SSE 02:07:37 20° SE 02:13:40 10° E visible
27 Jul 7.8 04:02:52 14° SW 04:10:43 54° SSE 04:19:32 10° ENE visible
28 Jul 8.8 01:40:52 17° SE 01:42:36 18° SE 01:48:12 10° E visible
28 Jul 7.8 03:38:53 19° SW 03:45:37 51° SSE 03:54:22 10° ENE visible
29 Jul 8.9 01:16:51 16° SE 01:17:36 16° SE 01:22:40 10° E visible
29 Jul 7.8 03:14:51 23° SSW 03:20:32 48° SE 03:29:11 10° ENE visible
30 Jul 8.9 00:52:47 14° SE 00:52:47 14° SE 00:57:01 10° E visible
30 Jul 7.8 02:50:47 27° SSW 02:55:26 46° SE 03:04:00 10° ENE visible
30 Jul 7.5 04:50:11 10° WSW 04:59:30 81° SSE 05:08:42 10° E visible
31 Jul 9.1 00:28:41 12° ESE 00:28:41 12° ESE 00:31:11 10° E visible
31 Jul 7.9 02:26:40 31° S 02:30:21 43° SE 02:38:49 10° ENE visible
31 Jul 7.5 04:25:01 10° WSW 04:34:21 79° SSE 04:43:32 10° E visible
01 Aug 9.2 00:04:32 10° ESE 00:04:32 10° ESE 00:04:59 10° ESE visible
01 Aug 7.9 02:02:32 33° S 02:05:16 40° SE 02:13:37 10° ENE visible
01 Aug 7.5 04:00:31 13° WSW 04:09:12 77° SSE 04:18:22 10° E visible
02 Aug 7.9 01:38:20 35° SSE 01:40:12 38° SE 01:48:25 10° ENE visible
02 Aug 7.4 03:36:20 17° WSW 03:44:02 75° SSE 03:53:13 10° E visible
03 Aug 8.0 01:14:07 34° SSE 01:15:07 35° SE 01:23:12 10° ENE visible
03 Aug 7.4 03:12:05 21° WSW 03:18:54 73° SSE 03:28:03 10° ENE visible
04 Aug 8.1 00:49:50 33° SE 00:50:04 33° SE 00:57:59 10° ENE visible
04 Aug 7.4 02:47:48 26° SW 02:53:46 71° SSE 03:02:54 10° ENE visible
04 Aug 7.5 04:48:59 10° W 04:58:22 87° S 05:07:34 10° E visible
